Tracking 27420 objects as of 28-May-2023
HD Live streaming from Space Station
objects crossing your sky now

STARLINK-4211

Track STARLINK-4211 now!
10-day predictions
STARLINK-4211 is classified as:


NORAD ID: 52873
Int'l Code: 2022-062AV
Perigee: 546.3 km
Apogee: 547.5 km
Inclination: 53.2 °
Period: 95.4 minutes
Semi major axis: 6917 km
RCS: Unknown
Launch date: June 17, 2022
Source: United States (US)
Launch site: AIR FORCE EASTERN TEST RANGE (AFETR)
Your satellite tracking list
Your tracking list is empty




NASA's NSSDC Master Catalog

Two Line Element Set (TLE):
1 52873U 22062AV  23147.57309247  .00004674  00000-0  31161-3 0  9997
2 52873  53.2158 260.1323 0000903  98.9518 261.1576 15.08833969 52513
Source of the keplerian elements: AFSPC